• în Republica Moldova
  • Lista ţărilor
  • Pe 7 zile
  • Temperatura apei
  • Hartă satelitară
  • Meteo pe hartă
  • Widget-uri
  • user-avatar
    Intrare

    Meteo pe oră la Namibe

    Astăzi, 24 Iunie, Sâmbătă

    Timp Temperatura Precipitaţii Vânt Presiune Umiditate
    00:00 +25°C° 0 mm 1 m/s 759 mmHg 47%
    01:00 +25°C° 0 mm 1 m/s 759 mmHg 46%
    02:00 +25°C° 0 mm 1 m/s 758 mmHg 42%
    03:00 +24°C° 0 mm 2 m/s 758 mmHg 38%
    04:00 +24°C° 0 mm 2 m/s 758 mmHg 34%
    05:00 +24°C° 0 mm 2 m/s 758 mmHg 32%
    06:00 +24°C° 0 mm 2 m/s 758 mmHg 31%
    07:00 +24°C° 0 mm 2 m/s 759 mmHg 29%
    08:00 +26°C° 0 mm 2 m/s 759 mmHg 25%
    09:00 +29°C° 0 mm 2 m/s 759 mmHg 22%
    10:00 +32°C° 0 mm 2 m/s 759 mmHg 18%
    11:00 +34°C° 0 mm 3 m/s 759 mmHg 17%
    12:00 +36°C° 0 mm 3 m/s 758 mmHg 16%
    13:00 +37°C° 0 mm 3 m/s 758 mmHg 15%
    14:00 +37°C° 0 mm 4 m/s 757 mmHg 17%
    15:00 +36°C° 0 mm 4 m/s 757 mmHg 19%
    16:00 +36°C° 0 mm 5 m/s 757 mmHg 21%
    17:00 +33°C° 0 mm 4 m/s 757 mmHg 28%
    18:00 +30°C° 0 mm 3 m/s 757 mmHg 34%
    19:00 +28°C° 0 mm 2 m/s 758 mmHg 40%
    20:00 +27°C° 0 mm 2 m/s 758 mmHg 42%
    21:00 +27°C° 0 mm 1 m/s 759 mmHg 44%
    22:00 +24°C° 0 mm 0 m/s 759 mmHg 45%
    23:00 +25°C° 0 mm 1 m/s 759 mmHg 48%

    Mâine, 25 Iunie, Duminică

    Timp Temperatura Precipitaţii Vânt Presiune Umiditate
    00:00 +25°C° 0 mm 1 m/s 759 mmHg 50%
    01:00 +24°C° 0 mm 1 m/s 759 mmHg 52%
    02:00 +24°C° 0 mm 1 m/s 758 mmHg 51%
    03:00 +24°C° 0 mm 1 m/s 758 mmHg 50%
    04:00 +23°C° 0 mm 1 m/s 758 mmHg 49%
    05:00 +24°C° 0 mm 1 m/s 758 mmHg 47%
    06:00 +24°C° 0 mm 1 m/s 758 mmHg 45%
    07:00 +24°C° 0 mm 1 m/s 758 mmHg 43%
    08:00 +27°C° 0 mm 1 m/s 758 mmHg 35%
    09:00 +29°C° 0 mm 1 m/s 758 mmHg 28%
    10:00 +32°C° 0 mm 1 m/s 759 mmHg 21%
    11:00 +34°C° 0 mm 2 m/s 758 mmHg 19%
    12:00 +36°C° 0 mm 3 m/s 757 mmHg 18%
    13:00 +37°C° 0 mm 4 m/s 757 mmHg 16%
    14:00 +36°C° 0 mm 4 m/s 756 mmHg 19%
    15:00 +35°C° 0 mm 4 m/s 756 mmHg 23%
    16:00 +35°C° 0 mm 5 m/s 756 mmHg 26%
    17:00 +33°C° 0 mm 4 m/s 756 mmHg 32%
    18:00 +29°C° 0 mm 3 m/s 757 mmHg 38%
    19:00 +27°C° 0 mm 2 m/s 757 mmHg 45%
    20:00 +27°C° 0 mm 2 m/s 758 mmHg 47%
    21:00 +26°C° 0 mm 1 m/s 758 mmHg 49%
    22:00 +25°C° 0 mm 1 m/s 758 mmHg 51%
    23:00 +25°C° 0 mm 1 m/s 758 mmHg 51%

    Poimâine, 26 Iunie, Luni

    Timp Temperatura Precipitaţii Vânt Presiune Umiditate
    00:00 +25°C° 0 mm 1 m/s 758 mmHg 52%
    01:00 +24°C° 0 mm 1 m/s 758 mmHg 52%
    02:00 +24°C° 0 mm 2 m/s 758 mmHg 53%
    03:00 +23°C° 0 mm 2 m/s 757 mmHg 53%
    04:00 +23°C° 0 mm 2 m/s 757 mmHg 54%
    05:00 +23°C° 0 mm 2 m/s 757 mmHg 53%
    06:00 +23°C° 0 mm 2 m/s 758 mmHg 53%
    07:00 +23°C° 0 mm 2 m/s 758 mmHg 52%
    08:00 +26°C° 0 mm 2 m/s 758 mmHg 43%
    09:00 +29°C° 0 mm 2 m/s 759 mmHg 35%
    10:00 +32°C° 0 mm 1 m/s 759 mmHg 26%
    11:00 +34°C° 0 mm 2 m/s 759 mmHg 24%
    12:00 +36°C° 0 mm 3 m/s 758 mmHg 21%
    13:00 +37°C° 0 mm 4 m/s 758 mmHg 19%
    14:00 +37°C° 0 mm 4 m/s 757 mmHg 20%
    15:00 +36°C° 0 mm 5 m/s 757 mmHg 21%
    16:00 +36°C° 0 mm 5 m/s 757 mmHg 23%
    17:00 +33°C° 0 mm 4 m/s 757 mmHg 28%
    18:00 +30°C° 0 mm 4 m/s 758 mmHg 33%
    19:00 +28°C° 0 mm 4 m/s 759 mmHg 38%
    20:00 +27°C° 0 mm 3 m/s 759 mmHg 40%
    21:00 +27°C° 0 mm 3 m/s 759 mmHg 41%
    22:00 +26°C° 0 mm 3 m/s 760 mmHg 42%
    23:00 +26°C° 0 mm 3 m/s 759 mmHg 42%

    27 Iunie, Marţi

    Timp Temperatura Precipitaţii Vânt Presiune Umiditate
    00:00 +25°C° 0 mm 3 m/s 759 mmHg 41%
    01:00 +25°C° 0 mm 4 m/s 759 mmHg 41%
    02:00 +25°C° 0 mm 4 m/s 759 mmHg 41%
    03:00 +23°C° 0 mm 4 m/s 759 mmHg 41%
    04:00 +23°C° 0 mm 4 m/s 759 mmHg 41%
    05:00 +23°C° 0 mm 4 m/s 759 mmHg 40%
    06:00 +23°C° 0 mm 4 m/s 759 mmHg 40%
    07:00 +23°C° 0 mm 4 m/s 759 mmHg 39%
    08:00 +27°C° 0 mm 4 m/s 760 mmHg 32%
    09:00 +30°C° 0 mm 4 m/s 760 mmHg 25%
    10:00 +34°C° 0 mm 4 m/s 760 mmHg 18%
    11:00 +36°C° 0 mm 4 m/s 759 mmHg 15%
    12:00 +37°C° 0 mm 5 m/s 759 mmHg 12%
    13:00 +40°C° 0 mm 6 m/s 758 mmHg 9%
    14:00 +39°C° 0 mm 6 m/s 758 mmHg 11%
    15:00 +39°C° 0 mm 7 m/s 758 mmHg 12%
    16:00 +38°C° 0 mm 7 m/s 757 mmHg 14%
    17:00 +35°C° 0 mm 7 m/s 758 mmHg 19%
    18:00 +32°C° 0 mm 6 m/s 759 mmHg 24%
    19:00 +29°C° 0 mm 6 m/s 759 mmHg 29%
    20:00 +28°C° 0 mm 6 m/s 760 mmHg 30%
    21:00 +27°C° 0 mm 5 m/s 760 mmHg 31%
    22:00 +27°C° 0 mm 5 m/s 760 mmHg 31%
    23:00 +26°C° 0 mm 5 m/s 760 mmHg 31%

    28 Iunie, Miercuri

    Timp Temperatura Precipitaţii Vânt Presiune Umiditate
    00:00 +26°C° 0 mm 5 m/s 760 mmHg 30%
    01:00 +25°C° 0 mm 5 m/s 760 mmHg 30%
    02:00 +25°C° 0 mm 5 m/s 759 mmHg 30%
    03:00 +23°C° 0 mm 5 m/s 759 mmHg 31%
    04:00 +23°C° 0 mm 5 m/s 759 mmHg 31%
    05:00 +23°C° 0 mm 5 m/s 759 mmHg 30%
    06:00 +23°C° 0 mm 5 m/s 760 mmHg 29%
    07:00 +23°C° 0 mm 6 m/s 760 mmHg 28%
    08:00 +27°C° 0 mm 6 m/s 760 mmHg 23%
    09:00 +30°C° 0 mm 6 m/s 760 mmHg 18%
    10:00 +34°C° 0 mm 6 m/s 760 mmHg 13%
    11:00 +36°C° 0 mm 6 m/s 759 mmHg 11%
    12:00 +38°C° 0 mm 7 m/s 759 mmHg 9%
    13:00 +40°C° 0 mm 8 m/s 758 mmHg 8%
    14:00 +39°C° 0 mm 8 m/s 758 mmHg 10%
    15:00 +39°C° 0 mm 9 m/s 757 mmHg 13%
    16:00 +38°C° 0 mm 10 m/s 757 mmHg 15%
    17:00 +35°C° 0 mm 9 m/s 757 mmHg 21%
    18:00 +32°C° 0 mm 8 m/s 758 mmHg 27%
    19:00 +29°C° 0 mm 8 m/s 758 mmHg 33%
    20:00 +28°C° 0 mm 7 m/s 758 mmHg 36%
    21:00 +27°C° 0 mm 6 m/s 759 mmHg 39%
    22:00 +26°C° 0 mm 5 m/s 759 mmHg 42%
    23:00 +26°C° 0 mm 5 m/s 759 mmHg 42%

    29 Iunie, Joi

    Timp Temperatura Precipitaţii Vânt Presiune Umiditate
    00:00 +25°C° 0 mm 4 m/s 758 mmHg 41%
    01:00 +25°C° 0 mm 4 m/s 758 mmHg 41%
    02:00 +25°C° 0 mm 4 m/s 758 mmHg 39%
    03:00 +25°C° 0 mm 4 m/s 758 mmHg 38%
    04:00 +25°C° 0 mm 4 m/s 758 mmHg 36%
    05:00 +25°C° 0 mm 4 m/s 758 mmHg 33%
    06:00 +25°C° 0 mm 4 m/s 759 mmHg 29%
    07:00 +25°C° 0 mm 3 m/s 759 mmHg 26%
    08:00 +28°C° 0 mm 4 m/s 759 mmHg 21%
    09:00 +32°C° 0 mm 4 m/s 759 mmHg 16%
    10:00 +36°C° 0 mm 4 m/s 759 mmHg 11%
    11:00 +37°C° 0 mm 5 m/s 759 mmHg 11%
    12:00 +39°C° 0 mm 5 m/s 758 mmHg 12%
    13:00 +40°C° 0 mm 5 m/s 758 mmHg 12%
    14:00 +39°C° 0 mm 6 m/s 758 mmHg 18%
    15:00 +36°C° 0 mm 6 m/s 757 mmHg 25%
    16:00 +34°C° 0 mm 6 m/s 757 mmHg 31%
    17:00 +32°C° 0 mm 5 m/s 758 mmHg 39%
    18:00 +28°C° 0 mm 5 m/s 759 mmHg 47%
    19:00 +26°C° 0 mm 4 m/s 759 mmHg 54%
    20:00 +26°C° 0 mm 3 m/s 760 mmHg 56%
    21:00 +25°C° 0 mm 3 m/s 760 mmHg 57%
    22:00 +25°C° 0 mm 3 m/s 760 mmHg 59%
    23:00 +25°C° 0 mm 3 m/s 760 mmHg 57%
    Arată mai mult